Regional Weather Roundup
Issued by NWS

Home | Current Version | Previous Version | Graphics & Text | Print | Product List | Glossary Off
Versions: 1 2 3 4 5 6 7 8 9 10 11 12 13 14 15 16 17 18 19 20 21 22 23 24 25 26 27 28 29 30 31 32 33 34 35 36 37 38 39 40 41 42 43 44 45 46 47 48 49 50

000
ASUS43 KTOP 111208
RWRKS

WEATHER ROUNDUP FOR KANSAS
NATIONAL WEATHER SERVICE GOODLAND KS
700 AM CDT FRI JUL 11 2014

NOTE:  "FAIR" INDICATES FEW OR NO CLOUDS BELOW 12,000 FEET WITH NO
SIGNIFICANT WEATHER AND/OR OBSTRUCTIONS TO VISIBILITY.

KSZ001>006-013>018-027>032-041>047-111300-
NORTHWEST KANSAS

CITY           SKY/WX    TMP DP  RH WIND       PRES   REMARKS
GOODLAND       PTCLDY    68  54  60 S8        29.99R
6HR MIN TEMP:  68; 6HR MAX TEMP:  73;

HAYS           CLEAR    N/A N/A N/A S3        29.95S
HILL CITY      MOCLDY    69  65  86 CALM      29.94R
6HR MIN TEMP:  68; 6HR MAX TEMP:  73;

RUSSELL        CLEAR     69  67  93 S10       29.94S
6HR MIN TEMP:  69; 6HR MAX TEMP:  72;

$$

KSZ061>065-074>080-084>089-111300-
SOUTHWEST KANSAS

CITY           SKY/WX    TMP DP  RH WIND       PRES   REMARKS
DODGE CITY     CLEAR     63  55  75 S9        30.02R
6HR MIN TEMP:  63; 6HR MAX TEMP:  72;

ELKHART          N/A     72  52  49 SW13        N/A
GARDEN CITY    CLEAR     65  53  65 S9        30.01R
6HR MIN TEMP:  65; 6HR MAX TEMP:  75;

GREAT BEND     CLEAR     70  63  78 S10       29.96R
LIBERAL        CLEAR     66  50  55 S9        30.06R
PRATT          CLEAR     68  63  83 S9        30.01S
$$

KSZ066>073-081>083-090>101-111300-
SOUTHEAST KANSAS

CITY           SKY/WX    TMP DP  RH WIND       PRES   REMARKS
CHANUTE        MOCLDY    70  66  87 S10       30.06S
6HR MIN TEMP:  69; 6HR MAX TEMP:  71;

COFFEYVILLE    CLEAR     68  65  90 SE7       30.06R
6HR MIN TEMP:  68; 6HR MAX TEMP:  72;

HUTCHINSON     CLEAR     69  65  86 SE9       30.00R
6HR MIN TEMP:  69; 6HR MAX TEMP:  72;

MEDICINE LODGE   N/A     69  66  90 SE7       30.01R
NEWTON         MOCLDY    68  63  83 S13       30.04R
PARSONS        CLEAR     70  65  84 S3        30.08R
6HR MIN TEMP:  69; 6HR MAX TEMP:  72;

WICHITA INTL   PTCLDY    69  66  90 S8        30.01R
6HR MIN TEMP:  69; 6HR MAX TEMP:  72;

WICHITA JABRA  CLEAR     69  67  93 S10       30.01S
6HR MIN TEMP:  68; 6HR MAX TEMP:  70;

WICHITA MCCONL CLEAR     69  69 100 SE9       30.02R
WINFIELD       CLEAR     69  68  96 SE8       30.04R
6HR MIN TEMP:  69; 6HR MAX TEMP:  70;

$$

KSZ007>012-019>026-033>040-048>060-102>105-111300-
NORTHEAST KANSAS

CITY           SKY/WX    TMP DP  RH WIND       PRES   REMARKS
CONCORDIA      CLEAR     68  67  96 S12       29.96S
6HR MIN TEMP:  67; 6HR MAX TEMP:  72;

EMPORIA        CLOUDY    68  66  93 S16G22    30.03S
6HR MIN TEMP:  67; 6HR MAX TEMP:  70;

LAWRENCE       MOCLDY    71  67  87 SE9       30.04S
6HR MIN TEMP:  67; 6HR MAX TEMP:  71;

MANHATTAN      PTCLDY    70  66  87 S6        29.99S
6HR MIN TEMP:  70; 6HR MAX TEMP:  73;

MARYSVILLE     CLEAR     70  66  88 SE10G17   29.98R
OLATHE IND     MOCLDY    70  66  87 SE13      30.06S
6HR MIN TEMP:  67; 6HR MAX TEMP:  70;

OLATHE EXE     CLOUDY    69  65  86 S8        30.06S
6HR MIN TEMP:  66; 6HR MAX TEMP:  69;

SALINA         CLEAR     71  66  84 S12       29.97S
6HR MIN TEMP:  70; 6HR MAX TEMP:  75;

TOPEKA BILLARD MOCLDY    72  67  84 SE9       30.02S
6HR MIN TEMP:  71; 6HR MAX TEMP:  73;

TOPEKA FORBES  PTCLDY    70  66  87 SE12      30.02S
6HR MIN TEMP:  70; 6HR MAX TEMP:  71;

$$


USA.gov is the U.S. government's official web portal to all federal, state and local government web resources and services.